| time (UTC) | temp F | wind direction | speed knots | gust knots | rain 1hr in | rain 24hr in | rain mn in | humidity % | barometer mb |
| 20260506164045 | 62 | 176 | 0.9 | 4.3 | 0.00 | 0.01 | 0.00 | 74 | 1020.3 |
| 20260506163539 | 62 | 176 | 1.7 | 4.3 | 0.00 | 0.01 | 0.00 | 74 | 1020.3 |
| 20260506163034 | 61 | 245 | 0.9 | 4.3 | 0.00 | 0.01 | 0.00 | 75 | 1020.4 |
| 20260506162812 | 61 | 245 | 0.0 | 2.6 | 0.00 | 0.01 | 0.00 | 76 | 1020.4 |
| 20260506162021 | 60 | 244 | 0.9 | 2.6 | 0.00 | 0.01 | 0.00 | 77 | 1020.4 |
| 20260506161801 | 60 | 244 | 0.9 | 2.6 | 0.00 | 0.01 | 0.00 | 76 | 1020.4 |
| 20260506161010 | 60 | 245 | 0.9 | 2.6 | 0.00 | 0.01 | 0.00 | 77 | 1020.4 |
| 20260506160503 | 59 | 244 | 0.0 | 1.7 | 0.00 | 0.01 | 0.00 | 79 | 1020.4 |
| 20260506155958 | 58 | 245 | 0.0 | 2.6 | 0.00 | 0.01 | 0.00 | 79 | 1020.4 |
| 20260506155451 | 58 | 245 | 0.0 | 2.6 | 0.00 | 0.01 | 0.00 | 80 | 1020.5 |
| 20260506154946 | 57 | 245 | 0.0 | 1.7 | 0.00 | 0.01 | 0.00 | 80 | 1020.5 |
| 20260506154439 | 57 | 245 | 0.9 | 4.3 | 0.00 | 0.01 | 0.00 | 80 | 1020.5 |
| 20260506153934 | 57 | 244 | 1.7 | 4.3 | 0.00 | 0.01 | 0.00 | 80 | 1020.5 |
| 20260506153427 | 57 | 245 | 0.9 | 2.6 | 0.00 | 0.01 | 0.00 | 80 | 1020.5 |
| 20260506152922 | 57 | 245 | 0.0 | 2.6 | 0.00 | 0.01 | 0.00 | 80 | 1020.6 |
| 20260506152416 | 57 | 244 | 0.0 | 0.0 | 0.00 | 0.01 | 0.00 | 81 | 1020.5 |
| 20260506151910 | 57 | 244 | 0.0 | 2.6 | 0.00 | 0.01 | 0.00 | 81 | 1020.6 |
| 20260506151403 | 57 | 245 | 0.0 | 2.6 | 0.00 | 0.01 | 0.00 | 81 | 1020.6 |
| 20260506151142 | 56 | 245 | 0.0 | 3.5 | 0.00 | 0.01 | 0.00 | 81 | 1020.6 |
| 20260506150351 | 56 | 245 | 0.0 | 3.5 | 0.00 | 0.01 | 0.00 | 82 | 1020.5 |
| 20260506145846 | 56 | 245 | 0.0 | 1.7 | 0.00 | 0.01 | 0.00 | 81 | 1020.6 |
| 20260506145346 | 56 | 245 | 0.0 | 1.7 | 0.00 | 0.01 | 0.00 | 82 | 1020.5 |
| 20260506144846 | 56 | 245 | 0.9 | 2.6 | 0.00 | 0.01 | 0.00 | 82 | 1020.6 |
| 20260506144710 | 56 | 244 | 0.0 | 1.7 | 0.00 | 0.01 | 0.00 | 83 | 1020.4 |
| 20260506144412 | 56 | 244 | 0.0 | 2.6 | 0.00 | 0.01 | 0.00 | 83 | 1020.5 |
| 20260506143630 | 56 | 245 | 0.0 | 1.7 | 0.00 | 0.01 | 0.00 | 83 | 1020.3 |
| 20260506143128 | 56 | 245 | 0.0 | 1.7 | 0.00 | 0.01 | 0.00 | 83 | 1020.3 |
| 20260506142345 | 55 | 245 | 0.0 | 0.9 | 0.00 | 0.01 | 0.00 | 84 | 1020.3 |
| 20260506141844 | 55 | 245 | 0.9 | 3.5 | 0.00 | 0.01 | 0.00 | 84 | 1020.2 |
| 20260506141629 | 55 | 245 | 0.9 | 3.5 | 0.00 | 0.01 | 0.00 | 85 | 1020.2 |
| 20260506140845 | 55 | 245 | 0.0 | 2.6 | 0.00 | 0.01 | 0.00 | 86 | 1020.1 |
| 20260506140345 | 55 | 245 | 0.0 | 1.7 | 0.00 | 0.01 | 0.00 | 86 | 1020.1 |
| 20260506135842 | 55 | 245 | 0.0 | 1.7 | 0.00 | 0.01 | 0.00 | 86 | 1020.0 |
| 20260506135343 | 55 | 164 | 0.0 | 0.9 | 0.00 | 0.01 | 0.00 | 87 | 1020.0 |
| 20260506135127 | 55 | 267 | 0.0 | 0.0 | 0.00 | 0.01 | 0.00 | 87 | 1019.9 |
| 20260506134340 | 55 | 267 | 0.0 | 0.0 | 0.00 | 0.01 | 0.00 | 87 | 1019.9 |
| 20260506133841 | 55 | 267 | 0.0 | 0.0 | 0.00 | 0.01 | 0.00 | 87 | 1019.8 |
| 20260506133343 | 54 | 266 | 0.0 | 0.0 | 0.00 | 0.01 | 0.00 | 88 | 1019.8 |
| 20260506132837 | 54 | 267 | 0.0 | 0.0 | 0.00 | 0.01 | 0.00 | 88 | 1019.8 |
| 20260506132618 | 54 | 268 | 0.0 | 0.0 | 0.00 | 0.01 | 0.00 | 88 | 1019.8 |
| 20260506131825 | 54 | 267 | 0.0 | 0.0 | 0.00 | 0.01 | 0.00 | 88 | 1019.7 |
| 20260506131319 | 54 | 267 | 0.0 | 0.0 | 0.00 | 0.01 | 0.00 | 88 | 1019.7 |
| 20260506130813 | 54 | 268 | 0.0 | 0.0 | 0.00 | 0.01 | 0.00 | 88 | 1019.6 |
| 20260506130307 | 54 | 268 | 0.0 | 0.0 | 0.00 | 0.01 | 0.00 | 88 | 1019.6 |
| 20260506125801 | 54 | 268 | 0.0 | 0.0 | 0.00 | 0.01 | 0.00 | 88 | 1019.5 |
| 20260506125254 | 54 | 267 | 0.0 | 0.0 | 0.00 | 0.01 | 0.00 | 88 | 1019.5 |
| 20260506124748 | 54 | 268 | 0.0 | 0.0 | 0.00 | 0.01 | 0.00 | 88 | 1019.5 |
| 20260506124242 | 54 | 268 | 0.0 | 0.0 | 0.00 | 0.01 | 0.00 | 88 | 1019.5 |
| 20260506123737 | 54 | 267 | 0.0 | 0.0 | 0.00 | 0.01 | 0.00 | 88 | 1019.5 |
| 20260506123238 | 54 | 267 | 0.0 | 0.0 | 0.00 | 0.01 | 0.00 | 88 | 1019.4 |
| 20260506122738 | 54 | 267 | 0.0 | 0.0 | 0.00 | 0.01 | 0.00 | 88 | 1019.4 |
| 20260506122238 | 54 | 268 | 0.0 | 0.0 | 0.00 | 0.01 | 0.00 | 88 | 1019.4 |
| 20260506122038 | 54 | 267 | 0.0 | 0.0 | 0.00 | 0.01 | 0.00 | 88 | 1019.3 |
| 20260506121237 | 54 | 268 | 0.0 | 0.0 | 0.00 | 0.01 | 0.00 | 88 | 1019.3 |
| 20260506120736 | 53 | 268 | 0.0 | 0.0 | 0.00 | 0.01 | 0.00 | 88 | 1019.3 |
| 20260506120236 | 53 | 267 | 0.0 | 0.0 | 0.00 | 0.01 | 0.00 | 88 | 1019.3 |
| 20260506115738 | 53 | 268 | 0.0 | 0.0 | 0.00 | 0.01 | 0.00 | 88 | 1019.3 |
| 20260506115237 | 53 | 267 | 0.0 | 0.0 | 0.00 | 0.01 | 0.00 | 88 | 1019.3 |
| 20260506114738 | 53 | 267 | 0.0 | 0.0 | 0.00 | 0.01 | 0.00 | 88 | 1019.3 |
| 20260506114237 | 53 | 267 | 0.0 | 0.0 | 0.00 | 0.01 | 0.00 | 88 | 1019.3 |
| 20260506114020 | 53 | 267 | 0.0 | 0.0 | 0.00 | 0.01 | 0.00 | 89 | 1019.3 |
| 20260506113313 | 53 | 267 | 0.0 | 0.0 | 0.00 | 0.01 | 0.00 | 89 | 1019.2 |
| 20260506113300 | 53 | 267 | 0.0 | 0.0 | 0.00 | 0.01 | 0.00 | 88 | 1019.2 |
| 20260506112236 | 53 | 267 | 0.0 | 0.0 | 0.00 | 0.02 | 0.00 | 89 | 1019.2 |
| 20260506111737 | 53 | 268 | 0.0 | 0.0 | 0.00 | 0.02 | 0.00 | 89 | 1019.1 |
| 20260506111237 | 53 | 267 | 0.0 | 0.0 | 0.00 | 0.02 | 0.00 | 89 | 1019.0 |
| 20260506110731 | 53 | 268 | 0.0 | 0.0 | 0.00 | 0.02 | 0.00 | 89 | 1018.9 |
| 20260506110224 | 53 | 267 | 0.0 | 0.0 | 0.00 | 0.02 | 0.00 | 89 | 1018.9 |
| 20260506105719 | 53 | 267 | 0.0 | 0.0 | 0.00 | 0.02 | 0.00 | 89 | 1018.9 |
| 20260506105213 | 53 | 268 | 0.0 | 0.0 | 0.00 | 0.02 | 0.00 | 89 | 1018.9 |
| 20260506104706 | 53 | 267 | 0.0 | 0.0 | 0.00 | 0.02 | 0.00 | 89 | 1018.9 |
| 20260506104200 | 53 | 267 | 0.0 | 0.0 | 0.00 | 0.02 | 0.00 | 89 | 1018.9 |
| 20260506103654 | 52 | 267 | 0.0 | 0.0 | 0.00 | 0.02 | 0.00 | 89 | 1018.8 |
| 20260506103148 | 52 | 268 | 0.0 | 0.0 | 0.00 | 0.02 | 0.00 | 89 | 1018.7 |
| 20260506102643 | 52 | 268 | 0.0 | 0.0 | 0.00 | 0.02 | 0.00 | 89 | 1018.8 |
| 20260506102137 | 52 | 268 | 0.0 | 0.0 | 0.00 | 0.02 | 0.00 | 90 | 1018.8 |
| 20260506101659 | 52 | 268 | 0.0 | 0.0 | 0.00 | 0.03 | 0.00 | 90 | 1018.8 |
| 20260506101647 | 52 | 267 | 0.0 | 0.0 | 0.00 | 0.02 | 0.00 | 90 | 1018.8 |
| 20260506100619 | 52 | 267 | 0.0 | 0.0 | 0.00 | 0.03 | 0.00 | 90 | 1018.8 |
| 20260506100125 | 52 | 268 | 0.0 | 0.0 | 0.00 | 0.03 | 0.00 | 90 | 1018.9 |
| 20260506095607 | 52 | 267 | 0.0 | 0.0 | 0.00 | 0.04 | 0.00 | 90 | 1018.8 |
| 20260506095101 | 51 | 268 | 0.0 | 0.0 | 0.00 | 0.04 | 0.00 | 90 | 1018.8 |
| 20260506094554 | 51 | 267 | 0.0 | 0.0 | 0.00 | 0.04 | 0.00 | 90 | 1018.7 |
| 20260506094048 | 51 | 267 | 0.0 | 1.7 | 0.00 | 0.04 | 0.00 | 89 | 1018.7 |
| 20260506093542 | 51 | 268 | 0.0 | 1.7 | 0.00 | 0.04 | 0.00 | 89 | 1018.6 |
| 20260506093036 | 51 | 266 | 0.0 | 0.0 | 0.00 | 0.04 | 0.00 | 90 | 1018.7 |
| 20260506092819 | 51 | 267 | 0.0 | 0.0 | 0.00 | 0.04 | 0.00 | 90 | 1018.8 |
| 20260506092024 | 51 | 267 | 0.0 | 0.0 | 0.00 | 0.04 | 0.00 | 89 | 1018.7 |
| 20260506091518 | 51 | 267 | 0.0 | 0.0 | 0.00 | 0.04 | 0.00 | 89 | 1018.7 |
| 20260506091013 | 51 | 267 | 0.0 | 0.0 | 0.00 | 0.04 | 0.00 | 89 | 1018.6 |
| 20260506090506 | 51 | 268 | 0.0 | 0.0 | 0.00 | 0.04 | 0.00 | 90 | 1018.7 |
| 20260506090000 | 51 | 268 | 0.0 | 0.0 | 0.00 | 0.04 | 0.00 | 89 | 1018.8 |
| 20260506085455 | 51 | 268 | 0.0 | 0.0 | 0.00 | 0.04 | 0.00 | 89 | 1018.8 |
| 20260506085235 | 51 | 267 | 0.0 | 0.0 | 0.00 | 0.04 | 0.00 | 89 | 1018.6 |
| 20260506084442 | 51 | 268 | 0.0 | 0.0 | 0.00 | 0.04 | 0.00 | 89 | 1018.7 |
| 20260506083937 | 51 | 268 | 0.0 | 0.0 | 0.00 | 0.04 | 0.00 | 88 | 1018.7 |
| 20260506083431 | 51 | 268 | 0.0 | 0.0 | 0.00 | 0.04 | 0.00 | 88 | 1018.8 |
| 20260506082925 | 51 | 267 | 0.0 | 0.0 | 0.00 | 0.04 | 0.00 | 88 | 1018.9 |
| 20260506082418 | 51 | 268 | 0.0 | 0.0 | 0.00 | 0.04 | 0.00 | 88 | 1018.9 |
| 20260506081912 | 51 | 267 | 0.0 | 0.0 | 0.00 | 0.04 | 0.00 | 87 | 1018.8 |
| 20260506081406 | 52 | 267 | 0.0 | 0.0 | 0.00 | 0.04 | 0.00 | 87 | 1018.9 |
| 20260506080901 | 52 | 268 | 0.0 | 0.0 | 0.00 | 0.04 | 0.00 | 87 | 1018.9 |
| 20260506080355 | 52 | 267 | 0.0 | 0.0 | 0.00 | 0.04 | 0.00 | 87 | 1018.9 |
| 20260506080134 | 52 | 267 | 0.0 | 0.0 | 0.00 | 0.04 | 0.00 | 87 | 1018.8 |
| 20260506073318 | 53 | 268 | 0.0 | 0.0 | 0.00 | 0.04 | 0.00 | 85 | 1018.6 |
| 20260506072812 | 53 | 267 | 0.0 | 0.0 | 0.00 | 0.04 | 0.00 | 85 | 1018.4 |
| 20260506072306 | 54 | 267 | 0.0 | 0.0 | 0.00 | 0.04 | 0.00 | 85 | 1018.4 |
| 20260506071800 | 54 | 268 | 0.0 | 0.0 | 0.00 | 0.04 | 0.00 | 84 | 1018.4 |
| 20260506071254 | 54 | 267 | 0.0 | 0.0 | 0.00 | 0.04 | 0.00 | 84 | 1018.3 |
| 20260506070748 | 54 | 268 | 0.0 | 5.2 | 0.00 | 0.04 | 0.00 | 84 | 1018.3 |
| 20260506070243 | 54 | 267 | 0.0 | 5.2 | 0.00 | 0.04 | 0.00 | 84 | 1018.2 |
| 20260506062510 | 55 | 190 | 0.0 | 5.2 | 0.00 | 0.04 | 0.04 | 82 | 1017.9 |
| 20260506062505 | 55 | 274 | 0.9 | 5.2 | 0.00 | 0.04 | 0.04 | 82 | 1017.9 |
| 20260506061144 | 55 | 204 | 0.0 | 0.0 | 0.00 | 0.04 | 0.04 | 82 | 1017.9 |
| 20260506060650 | 55 | 204 | 0.0 | 0.0 | 0.00 | 0.04 | 0.04 | 82 | 1017.9 |
| 20260506060131 | 56 | 204 | 0.0 | 0.0 | 0.00 | 0.04 | 0.04 | 81 | 1017.9 |
| 20260506051032 | 57 | 253 | 1.7 | 7.0 | 0.00 | 0.04 | 0.04 | 80 | 1017.5 |
| 20260506050526 | 57 | 243 | 1.7 | 7.0 | 0.00 | 0.04 | 0.04 | 79 | 1017.5 |
| 20260506045008 | 57 | 234 | 1.7 | 6.1 | 0.00 | 0.04 | 0.04 | 79 | 1017.4 |
| 20260506044501 | 57 | 233 | 1.7 | 5.2 | 0.00 | 0.04 | 0.04 | 79 | 1017.3 |
| 20260506043955 | 57 | 241 | 1.7 | 6.1 | 0.00 | 0.04 | 0.04 | 79 | 1017.1 |
| 20260506043450 | 57 | 267 | 1.7 | 6.1 | 0.00 | 0.04 | 0.04 | 79 | 1017.1 |
| 20260506043230 | 57 | 240 | 1.7 | 6.1 | 0.00 | 0.04 | 0.04 | 79 | 1017.0 |
| 20260506042441 | 57 | 239 | 0.9 | 6.1 | 0.00 | 0.04 | 0.04 | 79 | 1016.9 |
| 20260506041940 | 57 | 239 | 0.9 | 6.1 | 0.00 | 0.04 | 0.04 | 79 | 1016.8 |
| 20260506041440 | 57 | 239 | 0.9 | 6.1 | 0.00 | 0.04 | 0.04 | 78 | 1016.8 |
| 20260506040936 | 57 | 239 | 1.7 | 7.8 | 0.00 | 0.04 | 0.04 | 78 | 1016.8 |
| 20260506040434 | 57 | 240 | 1.7 | 7.8 | 0.00 | 0.04 | 0.04 | 78 | 1016.8 |
| 20260506035934 | 57 | 243 | 2.6 | 7.8 | 0.00 | 0.04 | 0.04 | 78 | 1016.7 |
| 20260506035604 | 58 | 237 | 1.7 | 7.8 | 0.00 | 0.04 | 0.04 | 77 | 1016.6 |
| 20260506035537 | 57 | 252 | 2.6 | 7.8 | 0.00 | 0.04 | 0.04 | 78 | 1016.6 |
| 20260506035306 | 57 | 267 | 1.7 | 7.8 | 0.00 | 0.04 | 0.04 | 78 | 1016.6 |
| 20260506033932 | 58 | 264 | 1.7 | 7.0 | 0.00 | 0.04 | 0.04 | 77 | 1016.5 |
| 20260506033720 | 58 | 206 | 2.6 | 7.0 | 0.00 | 0.04 | 0.04 | 77 | 1016.3 |
| 20260506033218 | 58 | 214 | 1.7 | 6.1 | 0.00 | 0.04 | 0.04 | 77 | 1016.3 |
| 20260506032432 | 58 | 239 | 0.9 | 6.1 | 0.00 | 0.04 | 0.04 | 77 | 1016.3 |
| 20260506031934 | 58 | 239 | 0.9 | 6.1 | 0.00 | 0.04 | 0.04 | 76 | 1016.2 |
| 20260506031431 | 58 | 239 | 1.7 | 5.2 | 0.00 | 0.04 | 0.04 | 76 | 1016.1 |
| 20260506030930 | 58 | 205 | 2.6 | 7.8 | 0.00 | 0.04 | 0.04 | 76 | 1016.0 |
| 20260506030428 | 58 | 204 | 2.6 | 7.8 | 0.00 | 0.04 | 0.04 | 76 | 1016.0 |
| 20260506025930 | 58 | 211 | 2.6 | 6.1 | 0.00 | 0.04 | 0.04 | 76 | 1015.9 |
| 20260506025430 | 58 | 214 | 2.6 | 6.1 | 0.00 | 0.04 | 0.04 | 76 | 1015.8 |
| 20260506024927 | 58 | 228 | 2.6 | 9.6 | 0.00 | 0.04 | 0.04 | 76 | 1015.8 |
| 20260506024427 | 58 | 240 | 3.5 | 10.4 | 0.00 | 0.04 | 0.04 | 75 | 1015.8 |
| 20260506023928 | 58 | 246 | 2.6 | 10.4 | 0.00 | 0.04 | 0.04 | 75 | 1015.7 |
| 20260506023427 | 59 | 203 | 2.6 | 10.4 | 0.00 | 0.04 | 0.04 | 75 | 1015.7 |
| 20260506022928 | 59 | 224 | 3.5 | 10.4 | 0.00 | 0.04 | 0.04 | 75 | 1015.7 |
| 20260506022429 | 59 | 214 | 3.5 | 7.8 | 0.00 | 0.04 | 0.04 | 75 | 1015.6 |
| 20260506021927 | 59 | 199 | 2.6 | 7.8 | 0.00 | 0.04 | 0.04 | 74 | 1015.6 |
| 20260506021427 | 59 | 218 | 1.7 | 7.0 | 0.00 | 0.04 | 0.04 | 74 | 1015.5 |
| 20260506020927 | 59 | 245 | 2.6 | 7.8 | 0.00 | 0.04 | 0.04 | 74 | 1015.4 |
| 20260506020428 | 59 | 231 | 3.5 | 7.8 | 0.00 | 0.04 | 0.04 | 73 | 1015.4 |
| 20260506015926 | 59 | 237 | 3.5 | 8.7 | 0.00 | 0.04 | 0.04 | 73 | 1015.4 |
| 20260506015426 | 59 | 256 | 2.6 | 8.7 | 0.00 | 0.04 | 0.04 | 73 | 1015.3 |
| 20260506014926 | 60 | 292 | 2.6 | 7.0 | 0.00 | 0.04 | 0.04 | 73 | 1015.3 |
| 20260506014714 | 60 | 232 | 4.3 | 11.3 | 0.00 | 0.04 | 0.04 | 72 | 1015.2 |
| 20260506013925 | 60 | 214 | 5.2 | 13.0 | 0.00 | 0.04 | 0.04 | 72 | 1015.2 |
| 20260506013425 | 60 | 212 | 6.1 | 13.0 | 0.00 | 0.04 | 0.04 | 72 | 1015.2 |
| 20260506012924 | 60 | 198 | 5.2 | 13.0 | 0.00 | 0.04 | 0.04 | 72 | 1015.2 |
| 20260506012425 | 60 | 201 | 5.2 | 11.3 | 0.00 | 0.04 | 0.04 | 72 | 1015.2 |
| 20260506011924 | 60 | 202 | 4.3 | 11.3 | 0.00 | 0.04 | 0.04 | 72 | 1015.3 |
| 20260506011425 | 60 | 188 | 4.3 | 10.4 | 0.00 | 0.04 | 0.04 | 72 | 1015.4 |
| 20260506010924 | 60 | 253 | 5.2 | 9.6 | 0.00 | 0.04 | 0.04 | 72 | 1015.4 |
| 20260506010425 | 60 | 203 | 4.3 | 8.7 | 0.00 | 0.04 | 0.04 | 72 | 1015.3 |
| 20260506005924 | 60 | 199 | 4.3 | 11.3 | 0.00 | 0.04 | 0.04 | 72 | 1015.4 |
| 20260506005713 | 60 | 215 | 5.2 | 11.3 | 0.00 | 0.04 | 0.04 | 71 | 1015.3 |
| 20260506004924 | 60 | 256 | 4.3 | 9.6 | 0.00 | 0.04 | 0.04 | 71 | 1015.2 |
| 20260506004424 | 60 | 214 | 4.3 | 9.6 | 0.00 | 0.04 | 0.04 | 71 | 1015.2 |
| 20260506003924 | 61 | 203 | 5.2 | 9.6 | 0.00 | 0.04 | 0.04 | 71 | 1015.2 |
| 20260506003424 | 61 | 265 | 5.2 | 9.6 | 0.00 | 0.04 | 0.04 | 71 | 1015.2 |
| 20260506003214 | 61 | 263 | 4.3 | 13.0 | 0.00 | 0.04 | 0.04 | 71 | 1015.1 |
| 20260506002424 | 61 | 253 | 5.2 | 13.0 | 0.00 | 0.04 | 0.04 | 71 | 1015.1 |
| 20260506001924 | 61 | 245 | 5.2 | 11.3 | 0.00 | 0.04 | 0.04 | 71 | 1015.1 |
| 20260506001425 | 61 | 193 | 5.2 | 8.7 | 0.00 | 0.04 | 0.04 | 70 | 1015.1 |
| 20260506000927 | 61 | 249 | 4.3 | 10.4 | 0.00 | 0.04 | 0.04 | 70 | 1015.1 |
| 20260505235919 | 62 | 225 | 3.5 | 9.6 | 0.00 | 0.04 | 0.04 | 70 | 1015.0 |
| 20260505235412 | 62 | 204 | 4.3 | 9.6 | 0.00 | 0.04 | 0.04 | 70 | 1015.0 |
| 20260505235151 | 61 | 229 | 4.3 | 9.6 | 0.00 | 0.04 | 0.04 | 70 | 1014.9 |
| 20260505234400 | 62 | 237 | 4.3 | 10.4 | 0.00 | 0.04 | 0.04 | 70 | 1015.0 |
| 20260505233854 | 62 | 278 | 4.3 | 11.3 | 0.00 | 0.04 | 0.04 | 70 | 1015.0 |
| 20260505233349 | 62 | 216 | 2.6 | 8.7 | 0.00 | 0.04 | 0.04 | 70 | 1015.1 |
| 20260505232842 | 62 | 226 | 4.3 | 8.7 | 0.00 | 0.04 | 0.04 | 71 | 1015.2 |
| 20260505232335 | 62 | 216 | 6.1 | 11.3 | 0.00 | 0.04 | 0.04 | 71 | 1015.1 |
| 20260505231830 | 62 | 215 | 5.2 | 11.3 | 0.00 | 0.04 | 0.04 | 70 | 1015.1 |
| 20260505231324 | 62 | 210 | 5.2 | 10.4 | 0.00 | 0.04 | 0.04 | 71 | 1015.2 |
| 20260505230819 | 62 | 219 | 5.2 | 10.4 | 0.00 | 0.04 | 0.04 | 71 | 1015.2 |
| 20260505230345 | 62 | 199 | 4.3 | 9.6 | 0.00 | 0.04 | 0.04 | 71 | 1015.2 |
| 20260505230332 | 62 | 223 | 4.3 | 9.6 | 0.00 | 0.04 | 0.04 | 70 | 1015.2 |
| 20260505225300 | 62 | 242 | 5.2 | 12.2 | 0.00 | 0.04 | 0.04 | 70 | 1015.2 |
| 20260505224753 | 62 | 239 | 5.2 | 12.2 | 0.00 | 0.04 | 0.04 | 70 | 1015.1 |
| 20260505224248 | 62 | 212 | 5.2 | 10.4 | 0.00 | 0.04 | 0.04 | 70 | 1015.1 |
| 20260505224028 | 62 | 222 | 5.2 | 10.4 | 0.00 | 0.04 | 0.04 | 69 | 1015.2 |
| 20260505223236 | 62 | 219 | 5.2 | 11.3 | 0.00 | 0.04 | 0.04 | 71 | 1015.2 |
| 20260505222729 | 62 | 240 | 7.0 | 12.2 | 0.00 | 0.04 | 0.04 | 71 | 1015.3 |
| 20260505222223 | 62 | 190 | 7.0 | 12.2 | 0.00 | 0.04 | 0.04 | 70 | 1015.3 |
| 20260505221717 | 62 | 196 | 6.1 | 10.4 | 0.00 | 0.04 | 0.04 | 71 | 1015.3 |
| 20260505221212 | 62 | 197 | 4.3 | 10.4 | 0.00 | 0.04 | 0.04 | 71 | 1015.3 |
| 20260505221023 | 61 | 262 | 5.2 | 11.3 | 0.00 | 0.04 | 0.04 | 73 | 1015.4 |
| 20260505220725 | 62 | 256 | 4.3 | 11.3 | 0.00 | 0.04 | 0.04 | 73 | 1015.4 |
| 20260505215654 | 61 | 231 | 4.3 | 10.4 | 0.00 | 0.04 | 0.04 | 72 | 1015.5 |
| 20260505215149 | 61 | 225 | 5.2 | 13.9 | 0.00 | 0.04 | 0.04 | 73 | 1015.5 |
| 20260505214929 | 61 | 218 | 5.2 | 13.9 | 0.00 | 0.04 | 0.04 | 73 | 1015.5 |
| 20260505214422 | 60 | 222 | 4.3 | 10.4 | 0.00 | 0.04 | 0.04 | 74 | 1015.5 |
| 20260505213630 | 60 | 217 | 5.2 | 9.6 | 0.00 | 0.04 | 0.04 | 74 | 1015.6 |
| 20260505213124 | 60 | 257 | 6.1 | 12.2 | 0.00 | 0.04 | 0.04 | 74 | 1015.6 |
| 20260505212905 | 60 | 213 | 5.2 | 12.2 | 0.00 | 0.04 | 0.04 | 75 | 1015.7 |
| 20260505212113 | 60 | 235 | 3.5 | 8.7 | 0.00 | 0.04 | 0.04 | 75 | 1015.6 |
| 20260505211619 | 60 | 218 | 4.3 | 9.6 | 0.00 | 0.04 | 0.04 | 75 | 1015.7 |
| 20260505211100 | 60 | 193 | 5.2 | 10.4 | 0.00 | 0.04 | 0.04 | 74 | 1015.7 |
| 20260505210554 | 60 | 214 | 5.2 | 10.4 | 0.00 | 0.04 | 0.04 | 75 | 1015.7 |
| 20260505210352 | 60 | 214 | 6.1 | 10.4 | 0.00 | 0.04 | 0.04 | 75 | 1015.7 |
| 20260505205542 | 60 | 242 | 6.1 | 9.6 | 0.00 | 0.04 | 0.04 | 76 | 1015.6 |
| 20260505205036 | 59 | 224 | 4.3 | 9.6 | 0.00 | 0.04 | 0.04 | 76 | 1015.6 |
| 20260505204530 | 59 | 200 | 3.5 | 8.7 | 0.00 | 0.04 | 0.04 | 76 | 1015.6 |
| 20260505204024 | 59 | 210 | 4.3 | 11.3 | 0.00 | 0.04 | 0.04 | 76 | 1015.7 |
| 20260505203517 | 59 | 237 | 4.3 | 11.3 | 0.00 | 0.04 | 0.04 | 76 | 1015.8 |
| 20260505203011 | 59 | 210 | 4.3 | 8.7 | 0.00 | 0.04 | 0.04 | 76 | 1015.7 |
| 20260505202753 | 59 | 237 | 4.3 | 9.6 | 0.00 | 0.04 | 0.04 | 76 | 1015.7 |
| 20260505202000 | 60 | 251 | 3.5 | 9.6 | 0.00 | 0.04 | 0.04 | 76 | 1015.7 |
| 20260505201454 | 59 | 212 | 3.5 | 8.7 | 0.00 | 0.04 | 0.04 | 76 | 1015.7 |
| 20260505200948 | 60 | 195 | 4.3 | 8.7 | 0.00 | 0.04 | 0.04 | 76 | 1015.7 |
| 20260505200442 | 60 | 201 | 4.3 | 8.7 | 0.00 | 0.04 | 0.04 | 77 | 1015.8 |
| 20260505195936 | 60 | 211 | 3.5 | 7.0 | 0.00 | 0.04 | 0.04 | 79 | 1015.8 |
| 20260505194923 | 59 | 234 | 2.6 | 8.7 | 0.00 | 0.04 | 0.04 | 81 | 1015.9 |
| 20260505194420 | 58 | 240 | 3.5 | 8.7 | 0.00 | 0.04 | 0.04 | 80 | 1015.9 |
| 20260505193919 | 58 | 256 | 3.5 | 10.4 | 0.00 | 0.04 | 0.04 | 81 | 1015.9 |
| 20260505193703 | 58 | 238 | 4.3 | 10.4 | 0.00 | 0.04 | 0.04 | 81 | 1015.8 |
| 20260505192917 | 58 | 210 | 3.5 | 8.7 | 0.00 | 0.04 | 0.04 | 81 | 1015.7 |
| 20260505192418 | 58 | 224 | 2.6 | 8.7 | 0.00 | 0.04 | 0.04 | 82 | 1015.8 |
| 20260505191917 | 58 | 218 | 2.6 | 7.0 | 0.00 | 0.04 | 0.04 | 83 | 1015.8 |
| 20260505191417 | 58 | 222 | 3.5 | 7.0 | 0.00 | 0.04 | 0.04 | 82 | 1015.8 |
| 20260505190916 | 58 | 237 | 2.6 | 7.0 | 0.00 | 0.04 | 0.04 | 82 | 1015.9 |
| 20260505190417 | 58 | 268 | 1.7 | 6.1 | 0.00 | 0.04 | 0.04 | 82 | 1015.8 |
| 20260505185913 | 58 | 245 | 2.6 | 6.1 | 0.00 | 0.04 | 0.04 | 82 | 1015.8 |
| 20260505185411 | 58 | 227 | 3.5 | 7.0 | 0.00 | 0.04 | 0.04 | 82 | 1015.7 |
| 20260505184911 | 58 | 247 | 3.5 | 7.0 | 0.00 | 0.04 | 0.04 | 82 | 1015.7 |
| 20260505184658 | 58 | 212 | 2.6 | 7.0 | 0.00 | 0.04 | 0.04 | 82 | 1015.7 |
| 20260505183911 | 58 | 235 | 2.6 | 5.2 | 0.00 | 0.04 | 0.04 | 83 | 1015.7 |
| 20260505183414 | 58 | 272 | 2.6 | 5.2 | 0.01 | 0.04 | 0.04 | 83 | 1015.6 |
| 20260505182912 | 58 | 265 | 1.7 | 5.2 | 0.01 | 0.04 | 0.04 | 84 | 1015.6 |
| 20260505182412 | 58 | 219 | 1.7 | 5.2 | 0.01 | 0.04 | 0.04 | 85 | 1015.6 |
| 20260505181911 | 58 | 219 | 1.7 | 5.2 | 0.01 | 0.04 | 0.04 | 85 | 1015.7 |
| 20260505181411 | 57 | 219 | 2.6 | 7.8 | 0.01 | 0.04 | 0.04 | 84 | 1015.6 |
| 20260505180907 | 57 | 235 | 2.6 | 7.8 | 0.01 | 0.04 | 0.04 | 85 | 1015.6 |
| 20260505180652 | 57 | 242 | 3.5 | 7.8 | 0.01 | 0.04 | 0.04 | 85 | 1015.6 |
| 20260505175907 | 57 | 253 | 3.5 | 7.8 | 0.01 | 0.04 | 0.04 | 86 | 1015.5 |
| 20260505175654 | 57 | 213 | 3.5 | 7.0 | 0.01 | 0.04 | 0.04 | 87 | 1015.5 |
| 20260505174908 | 57 | 241 | 2.6 | 6.1 | 0.01 | 0.04 | 0.04 | 87 | 1015.5 |
| 20260505174408 | 57 | 216 | 2.6 | 6.1 | 0.01 | 0.04 | 0.04 | 88 | 1015.5 |
| 20260505173907 | 56 | 264 | 2.6 | 7.0 | 0.01 | 0.04 | 0.04 | 89 | 1015.5 |
| 20260505173407 | 56 | 264 | 1.7 | 7.0 | 0.00 | 0.03 | 0.04 | 89 | 1015.4 |
| 20260505172907 | 56 | 237 | 1.7 | 4.3 | 0.00 | 0.03 | 0.03 | 90 | 1015.4 |
| 20260505172408 | 56 | 237 | 1.7 | 5.2 | 0.00 | 0.03 | 0.03 | 91 | 1015.3 |
| 20260505171908 | 55 | 237 | 1.7 | 5.2 | 0.00 | 0.03 | 0.03 | 91 | 1015.2 |
| 20260505171408 | 55 | 237 | 1.7 | 7.0 | 0.00 | 0.03 | 0.03 | 91 | 1015.2 |
| 20260505170909 | 55 | 237 | 2.6 | 7.0 | 0.00 | 0.03 | 0.03 | 91 | 1015.2 |
| 20260505170408 | 55 | 224 | 2.6 | 7.0 | 0.00 | 0.03 | 0.03 | 91 | 1015.3 |
| 20260505165909 | 55 | 239 | 2.6 | 7.0 | 0.00 | 0.03 | 0.03 | 91 | 1015.4 |
| 20260505165407 | 55 | 256 | 1.7 | 5.2 | 0.00 | 0.03 | 0.03 | 91 | 1015.4 |
| 20260505164907 | 55 | 257 | 0.9 | 3.5 | 0.00 | 0.03 | 0.03 | 91 | 1015.3 |
| 20260505164401 | 55 | 257 | 1.7 | 5.2 | 0.00 | 0.03 | 0.03 | 91 | 1015.2 |